TimeEDT,TemperatureF,Dew PointF,Humidity,Sea Level PressureIn,VisibilityMPH,Wind Direction,Wind SpeedMPH,Gust SpeedMPH,PrecipitationIn,Events,Conditions,WindDirDegrees,DateUTC
12:13 AM,70.0,66.9,90,30.07,8.0,SW,4.6,-,0.01,Rain,Light Rain,220,2013-07-20 04:13:00
12:53 AM,71.1,68.0,90,29.98,10.0,Calm,Calm,-,0.01,,Mostly Cloudy,0,2013-07-20 04:53:00
1:53 AM,69.1,66.9,93,29.99,10.0,Calm,Calm,-,N/A,,Mostly Cloudy,0,2013-07-20 05:53:00
2:53 AM,68.0,66.9,96,29.99,4.0,Calm,Calm,-,N/A,,Mostly Cloudy,0,2013-07-20 06:53:00
3:53 AM,68.0,66.0,93,29.98,7.0,Calm,Calm,-,N/A,,Mostly Cloudy,0,2013-07-20 07:53:00
4:53 AM,68.0,66.0,93,29.97,3.0,Calm,Calm,-,N/A,,Mostly Cloudy,0,2013-07-20 08:53:00
5:53 AM,69.1,66.9,93,29.97,5.0,North,4.6,-,0.01,Rain,Light Rain,360,2013-07-20 09:53:00
6:28 AM,69.1,66.9,93,30.06,2.0,Calm,Calm,-,0.00,,Overcast,0,2013-07-20 10:28:00
6:53 AM,69.1,68.0,96,29.98,2.0,Calm,Calm,-,0.00,,Mostly Cloudy,0,2013-07-20 10:53:00
7:47 AM,69.8,68.0,94,30.07,2.0,Calm,Calm,-,N/A,,Overcast,0,2013-07-20 11:47:00
7:53 AM,70.0,68.0,93,29.99,6.0,Calm,Calm,-,N/A,,Overcast,0,2013-07-20 11:53:00
8:53 AM,71.1,69.1,93,30.01,6.0,Calm,Calm,-,N/A,,Mostly Cloudy,0,2013-07-20 12:53:00
9:39 AM,73.0,70.0,90,30.09,8.0,Calm,Calm,-,N/A,,Mostly Cloudy,0,2013-07-20 13:39:00
9:53 AM,73.0,69.1,87,30.02,8.0,SE,4.6,-,N/A,,Mostly Cloudy,130,2013-07-20 13:53:00
10:53 AM,73.9,70.0,87,30.02,10.0,ESE,4.6,-,N/A,,Mostly Cloudy,120,2013-07-20 14:53:00
11:53 AM,79.0,70.0,74,30.01,10.0,SE,3.5,-,N/A,,Mostly Cloudy,140,2013-07-20 15:53:00
12:53 PM,80.1,73.0,79,29.99,10.0,Calm,Calm,-,0.03,,Overcast,0,2013-07-20 16:53:00
1:08 PM,79.0,72.0,79,30.06,10.0,SE,4.6,-,0.00,,Overcast,140,2013-07-20 17:08:00
1:34 PM,77.0,72.0,84,30.04,10.0,SSE,4.6,-,0.00,Rain,Light Rain,160,2013-07-20 17:34:00
1:53 PM,79.0,73.0,82,29.97,10.0,ESE,3.5,-,0.00,,Partly Cloudy,120,2013-07-20 17:53:00
2:53 PM,80.1,73.0,79,29.94,10.0,Calm,Calm,-,0.01,Rain,Light Rain,0,2013-07-20 18:53:00
3:44 PM,81.0,73.0,77,30.00,4.0,SSW,6.9,-,0.00,Rain-Thunderstorm,Light Thunderstorms and Rain,210,2013-07-20 19:44:00
3:53 PM,77.0,71.1,82,29.93,4.0,West,17.3,26.5,0.07,Rain-Thunderstorm,Light Thunderstorms and Rain,270,2013-07-20 19:53:00
4:10 PM,72.0,66.9,84,29.99,2.0,Variable,4.6,-,0.17,Rain-Thunderstorm,Heavy Thunderstorms and Rain,0,2013-07-20 20:10:00
4:21 PM,75.0,68.0,79,30.00,3.0,SSE,6.9,-,0.39,Rain-Thunderstorm,Heavy Thunderstorms and Rain,160,2013-07-20 20:21:00
4:53 PM,79.0,70.0,74,29.91,10.0,Variable,3.5,-,0.39,,Mostly Cloudy,0,2013-07-20 20:53:00
5:31 PM,79.0,70.0,74,29.97,10.0,Calm,Calm,-,N/A,Thunderstorm,Thunderstorm,0,2013-07-20 21:31:00
5:53 PM,77.0,69.1,76,29.91,10.0,NNW,9.2,20.7,N/A,Thunderstorm,Thunderstorm,330,2013-07-20 21:53:00
6:37 PM,78.1,68.0,71,29.99,10.0,SSE,5.8,-,N/A,,Mostly Cloudy,160,2013-07-20 22:37:00
6:53 PM,78.1,70.0,76,29.91,10.0,South,4.6,-,N/A,,Mostly Cloudy,180,2013-07-20 22:53:00
7:53 PM,79.0,69.1,72,29.92,10.0,Calm,Calm,-,N/A,,Mostly Cloudy,0,2013-07-20 23:53:00
8:53 PM,75.9,71.1,85,29.93,10.0,Calm,Calm,-,N/A,,Mostly Cloudy,0,2013-07-21 00:53:00
9:53 PM,72.0,70.0,93,29.94,9.0,Calm,Calm,-,N/A,,Mostly Cloudy,0,2013-07-21 01:53:00
10:53 PM,72.0,70.0,93,29.96,7.0,Calm,Calm,-,N/A,,Mostly Cloudy,0,2013-07-21 02:53:00
11:53 PM,71.1,69.1,93,29.96,9.0,Calm,Calm,-,N/A,,Scattered Clouds,0,2013-07-21 03:53:00